Weather History for Chicopee, MA

Change the Weather History Date:

Sunday, July 14, 2013

  Actual Average Record
Temperature  
Mean Temperature 80 °F -  
Max Temperature 91 °F 80 °F 91 °F (1997)
Min Temperature 71 °F 59 °F 56 °F (2011)
Cooling Degree Days 16    
Growing Degree Days 30 (Base 50)    
Moisture  
Dew Point 72 °F    
Average Humidity 90    
Maximum Humidity 100    
Minimum Humidity 49    
Precipitation  
Precipitation 0.00 in - - ()
Sea Level Pressure  
Sea Level Pressure 30.29 in    
Wind  
Wind Speed 4 mph (NNE)    
Max Wind Speed 12 mph    
Max Gust Speed -    
Visibility 6 miles    
Events Fog    
Averages and records for this station are not official NWS values.
T = Trace of Precipitation, MM = Missing Value Source: NWS Daily Summary

Daily Weather History Graph

Daily Weather History Graph

Search for Another Location

Airport:

Trip Planner

Search our weather history database for the weather conditions in past years. The results will help you decide how hot, cold, wet, or windy it might be!

Date:

Astronomy

Jul. 14, 2013 Rise Set
Actual Time 5:26 AM EDT 8:25 PM EDT
Civil Twilight 4:53 AM EDT 8:58 PM EDT
Nautical Twilight 4:10 AM EDT 9:40 PM EDT
Astronomical Twilight 3:20 AM EDT 10:30 PM EDT
Moon 11:48 AM EDT (7/14) 11:27 PM EDT (7/14)
Length of Visible Light 16h 05m
Length of Day
14h 58m
Waxing Crescent, 35% of the Moon is Illuminated
Jul 14
Waxing Crescent
Jul 15
First Quarter
Jul 22
Full
Jul 29
Last Quarter
Aug 6
New

Hourly Weather History & Observations

Time (EDT) Temp. Heat Index Dew Point Humidity Pressure Visibility Wind Dir Wind Speed Gust Speed Precip Events Conditions
12:40 AM 71.6 °F - 71.6 °F 100% 30.29 in 10.0 mi NNW 3.5 mph - N/A   Overcast
12:52 AM 71.6 °F - 71.6 °F 100% 30.29 in 10.0 mi North 4.6 mph - N/A   Mostly Cloudy
12:55 AM 71.6 °F - 71.6 °F 100% 30.29 in 10.0 mi North 3.5 mph - N/A   Mostly Cloudy
1:18 AM 71.6 °F - 71.6 °F 100% 30.29 in 10.0 mi NE 3.5 mph - N/A   Overcast
1:30 AM 71.6 °F - 71.6 °F 100% 30.30 in 10.0 mi NE 2.3 mph - N/A   Overcast
1:43 AM 71.6 °F - 71.6 °F 100% 30.30 in 10.0 mi ENE 2.3 mph - N/A   Overcast
1:54 AM 71.6 °F - 71.6 °F 100% 30.30 in 10.0 mi NE 2.3 mph - N/A   Overcast
1:55 AM 71.6 °F - 71.6 °F 100% 30.29 in 10.0 mi NE 2.3 mph - N/A   Overcast
2:55 AM 73.4 °F - 71.6 °F 94% 30.29 in 10.0 mi Calm Calm - N/A   Overcast
4:55 AM 71.6 °F - 71.6 °F 100% 30.30 in 8.0 mi North 4.6 mph - N/A   Overcast
5:20 AM 71.6 °F - 71.6 °F 100% 30.30 in 4.0 mi North 3.5 mph - N/A   Overcast
5:25 AM 71.6 °F - 71.6 °F 100% 30.30 in 2.5 mi NNE 2.3 mph - N/A   Overcast
5:27 AM 71.6 °F - 71.6 °F 100% 30.30 in 2.0 mi NE 2.3 mph - N/A   Overcast
5:30 AM 71.6 °F - 71.6 °F 100% 30.30 in 1.8 mi NE 3.5 mph - N/A   Overcast
5:34 AM 71.6 °F - 71.6 °F 100% 30.30 in 1.5 mi ENE 3.5 mph - N/A   Overcast
5:45 AM 71.6 °F - 71.6 °F 100% 30.30 in 1.2 mi ENE 2.3 mph - N/A   Mostly Cloudy
5:48 AM 71.6 °F - 71.6 °F 100% 30.30 in 1.0 mi NE 2.3 mph - N/A   Mostly Cloudy
5:49 AM 71.6 °F - 71.6 °F 100% 30.30 in 0.8 mi ENE 2.3 mph - N/A   Mostly Cloudy
5:51 AM 71.6 °F - 71.6 °F 100% 30.30 in 0.5 mi ENE 3.5 mph - N/A Fog Fog
5:54 AM 71.6 °F - 71.6 °F 100% 30.30 in 0.5 mi ENE 3.5 mph - N/A Fog Fog
5:55 AM 71.6 °F - 71.6 °F 100% 30.30 in 0.2 mi ENE 3.5 mph - N/A Fog Fog
5:56 AM 71.6 °F - 71.6 °F 100% 30.30 in 0.2 mi NE 3.5 mph - N/A Fog Fog
5:58 AM 71.6 °F - 71.6 °F 100% 30.30 in 0.2 mi ENE 3.5 mph - N/A Fog Fog
6:00 AM 71.6 °F - 71.6 °F 100% 30.30 in 0.2 mi ENE 3.5 mph - N/A Fog Fog
6:01 AM 71.6 °F - 71.6 °F 100% 30.30 in 0.2 mi ENE 3.5 mph - N/A Fog Fog
6:05 AM 71.6 °F - 71.6 °F 100% 30.30 in 0.2 mi NE 3.5 mph - N/A Fog Fog
6:06 AM 71.6 °F - 71.6 °F 100% 30.30 in 0.2 mi ENE 3.5 mph - N/A Fog Fog
6:08 AM 71.6 °F - 71.6 °F 100% 30.30 in 0.2 mi ENE 4.6 mph - N/A Fog Fog
6:10 AM 71.6 °F - 71.6 °F 100% 30.30 in 0.2 mi ENE 3.5 mph - N/A Fog Fog
6:13 AM 71.6 °F - 71.6 °F 100% 30.30 in 0.5 mi ENE 3.5 mph - N/A Fog Fog
6:14 AM 71.6 °F - 71.6 °F 100% 30.30 in 0.5 mi ENE 2.3 mph - N/A Fog Fog
6:16 AM 71.6 °F - 71.6 °F 100% 30.31 in 0.8 mi ENE 2.3 mph - N/A   Mist
6:19 AM 71.6 °F - 71.6 °F 100% 30.31 in 1.0 mi NE 2.3 mph - N/A   Overcast
6:20 AM 71.6 °F - 71.6 °F 100% 30.31 in 1.2 mi NE 2.3 mph - N/A   Overcast
6:21 AM 71.6 °F - 71.6 °F 100% 30.31 in 1.5 mi NE 2.3 mph - N/A   Overcast
6:22 AM 71.6 °F - 71.6 °F 100% 30.31 in 1.8 mi NE 2.3 mph - N/A   Overcast
6:24 AM 71.6 °F - 71.6 °F 100% 30.31 in 2.0 mi NNE 2.3 mph - N/A   Overcast
6:28 AM 71.6 °F - 71.6 °F 100% 30.31 in 2.5 mi NNE 2.3 mph - N/A   Overcast
6:37 AM 71.6 °F - 71.6 °F 100% 30.31 in 3.0 mi North 2.3 mph - N/A   Overcast
6:54 AM 73.4 °F - 71.6 °F 94% 30.31 in 6.0 mi SSW 2.3 mph - N/A   Overcast
6:55 AM 73.4 °F - 71.6 °F 94% 30.31 in 7.0 mi SSW 2.3 mph - N/A   Overcast
7:27 AM 75.2 °F - 73.4 °F 94% 30.32 in 10.0 mi WSW 2.3 mph - N/A   Scattered Clouds
7:44 AM 75.2 °F - 75.2 °F 100% 30.32 in 10.0 mi WNW 4.6 mph - N/A   Mostly Cloudy
7:55 AM 76.1 °F - 75.2 °F 97% 30.32 in 10.0 mi WNW 3.5 mph - N/A   Mostly Cloudy
8:25 AM 77.0 °F - 75.2 °F 94% 30.32 in 10.0 mi Calm Calm - N/A   Scattered Clouds
8:55 AM 79.5 °F - 73.4 °F 81% 30.32 in 10.0 mi WSW 3.5 mph - N/A   Partly Cloudy
9:55 AM 82.8 °F 88.2 °F 72.7 °F 71% 30.30 in 10.0 mi WNW 8.1 mph - N/A   Partly Cloudy
10:40 AM 82.4 °F 88.2 °F 73.4 °F 74% 30.30 in 10.0 mi Variable 3.5 mph - N/A   Mostly Cloudy
10:55 AM 83.5 °F 89.4 °F 72.7 °F 70% 30.30 in 10.0 mi Variable 3.5 mph - N/A   Mostly Cloudy
11:14 AM 84.2 °F 90.9 °F 73.4 °F 70% 30.30 in 10.0 mi Variable 4.6 mph - N/A   Scattered Clouds
11:55 AM 86.9 °F 92.9 °F 71.6 °F 60% 30.29 in 10.0 mi West 8.1 mph - N/A   Scattered Clouds
12:55 PM 88.2 °F 93.7 °F 70.5 °F 56% 30.27 in 10.0 mi WNW 11.5 mph - N/A   Scattered Clouds
1:55 PM 90.0 °F 96.4 °F 71.4 °F 54% 30.26 in 10.0 mi West 8.1 mph - N/A   Scattered Clouds
2:55 PM 90.5 °F 97.0 °F 71.1 °F 53% 30.25 in 10.0 mi West 8.1 mph - N/A   Scattered Clouds
3:55 PM 90.0 °F 95.0 °F 69.6 °F 51% 30.23 in 10.0 mi NW 5.8 mph - N/A   Scattered Clouds
4:55 PM 89.6 °F 93.4 °F 68.0 °F 49% 30.22 in 10.0 mi WNW 10.4 mph - N/A   Scattered Clouds
5:55 PM 89.6 °F 94.7 °F 69.8 °F 52% 30.21 in 10.0 mi WNW 10.4 mph - N/A   Partly Cloudy
6:55 PM 87.8 °F 92.6 °F 69.8 °F 55% 30.21 in 10.0 mi West 9.2 mph - N/A   Scattered Clouds
7:55 PM 86.0 °F 91.8 °F 71.6 °F 62% 30.21 in 10.0 mi WNW 5.8 mph - N/A   Clear
8:55 PM 78.8 °F - 73.4 °F 83% 30.22 in 10.0 mi NW 4.6 mph - N/A   Clear